Regional Weather Roundup
Issued by NWS Sioux Falls, SD

Home | Current Version | Previous Version | Graphics & Text | Print | Product List | Glossary Off
Versions: 1 2 3 4 5 6 7 8 9 10 11 12 13 14 15 16 17 18 19 20 21 22 23 24 25 26 27 28 29 30 31 32 33 34 35 36 37 38 39 40 41 42 43 44 45 46 47 48 49 50

000
ASUS43 KFSD 072202
RWRFSD

WEATHER ROUNDUP FOR SE SOUTH DAKOTA/SW MINNESOTA/NW IOWA
NATIONAL WEATHER SERVICE SIOUX FALLS SD
400 PM CST WED DEC 07 2016

NOTE: "FAIR" INDICATES FEW OR NO CLOUDS BELOW 12,000 FEET WITH NO
SIGNIFICANT WEATHER AND OR OBSTRUCTIONS TO VISIBILITY.


SDZ038>040-050-052>070-072300-
SOUTHEAST SOUTH DAKOTA

CITY           SKY/WX    TMP DP  RH WIND       PRES   REMARKS
CHAMBERLAIN    CLEAR     16   5  62 NW23G38   30.36R WCI  -2
HURON          CLOUDY    15   5  64 NW25G33   30.31R WCI  -4
MADISON        MOCLDY    14   7  73 W29G38    30.21R WCI  -7
MITCHELL       MOCLDY    18   5  57 NW29G35   30.34R WCI  -1
SIOUX FALLS    PTCLDY    18   6  59 W23G33    30.24R WCI   0
WINNER         FAIR      16   2  54 NW25      30.37R WCI  -3
YANKTON        CLEAR    N/A N/A N/A W23G32    30.31R
$$

MNZ071-072-080-081-089-090-097-098-072300-
SOUTHWEST MINNESOTA

CITY           SKY/WX    TMP DP  RH WIND       PRES   REMARKS
FAIRMONT       CLEAR     21  10  62 W23G32    30.16R WCI   5
JACKSON        CLEAR     19   9  63 W25G33    30.15R WCI   2
LUVERNE        CLEAR     19   7  58 W28       30.23R WCI   1
MARSHALL       PTCLDY    15   6  67 NW31G38   30.17R WCI  -6
MONTEVIDEO     CLOUDY    18   7  62 NW20G29   30.18R WCI   1
PIPESTONE      PTCLDY    16   7  67 NW21G32   30.18R WCI  -2
REDWOOD FALLS  CLOUDY    18   7  62 NW21G35   30.16R WCI   1
TRACY          PTCLDY    18  10  68 W16G29    30.18R WCI   4
WINDOM         CLEAR     19   9  63 W25       30.14S WCI   2
WORTHINGTON    PTCLDY    17   8  67 W28G36    30.18R WCI  -2
$$

IAZ001>003-012>014-020>022-031-032-NEZ013-014-SDZ071-072300-
NORTHWEST IOWA

CITY           SKY/WX    TMP DP  RH WIND       PRES   REMARKS
CHEROKEE       CLEAR     21   9  60 W16G24    30.26R WCI   7
DENISON        CLEAR     21   9  58 W14G22    30.26R WCI   8
ESTHERVILLE    PTCLDY    20  10  65 W25G32    30.18R WCI   2
LE MARS        MOCLDY    21   7  53 W18G30    30.30R WCI   6
ORANGE CITY    PTCLDY    19  10  68 W29G36    30.24R WCI   1
SHELDON        PTCLDY    19   9  63 W26G35    30.21R WCI   1
SIOUX CITY     CLEAR     22   7  52 NW17G29   30.31R WCI   8
SPENCER        CLEAR     20   7  57 W33G43    30.20R WCI   0
STORM LAKE     CLEAR     19   9  63 W26       30.22R WCI   1
$$

ABBREVIATIONS USED IN REMARKS
   TC - TEMPERATURE IN CELSIUS
  WCI - WIND CHILL INDEX
   HX - HEAT INDEX
  VSB - VISIBILITY





USA.gov is the U.S. government's official web portal to all federal, state and local government web resources and services.